Weather in Dinard

France     48°38′02″N   2°04′03″W
temp.,
°C
wind,
m/s
gust,
m/s
humid.,
%
clouds,
%
prec.,
mm/h
press.,
hPa
HPBL,
m
8 march, mon
mon801:00+5ene78740 0.0 1025669
04:00+4ene66780 0.0 1024576
07:00+4ene67761 0.0 1024635
10:00+4ene56724 0.0 1025735
13:00+5nne44693 0.0 1025778
16:00+5nnw44670 0.0 1023457
19:00+6nne56710 0.0 1023739
22:00+5ene457327 0.0 1024575
9 march, tue
tue901:00+5ne337423 0.0 1024475
04:00+4ese11744 0.0 1023310
07:00+5sw227718 0.0 1023227
10:00+6sw2276100 0.0 1024351
13:00+6w337771 0.0 1022360
16:00+6nw117037 0.0 1021346
19:00+6sse127269 0.0 1020158
22:00+6sw6878100 0.0 1020390
10 march, wed
wed1001:00+5ssw81174100 0.0 1019469
04:00+5ssw91479100 0.0 1017643
07:00+7ssw101680100 0.0 1016737
10:00+8ssw111782100 0.5 1014725
13:00+9ssw132086100 1.8 1013561
16:00+10ssw111791100 0.6 1010401
19:00+11ssw101592100 0.9 1009241
22:00+11sw111884100 0.2 1009365
11 march, thu
thu1101:00+11sw111886100 0.3 1007366
04:00+11sw111787100 0.7 1005382
07:00+10wsw112079100 1.6 1006964
10:00+9wsw12197665 0.0 10081073
13:00+10w12187164 0.3 1010919
16:00+9w111772100 0.3 1010835
19:00+9w111774100 0.8 10121104
22:00+8wsw1015750 0.1 1015851
12 march, fri
fri1201:00+8wsw912760 0.3 1016580
04:00+7wsw811760 0.0 1016560
07:00+7sw812784 0.0 1015631
10:00+8sw9137532 0.0 1014743
13:00+10sw8127249 0.1 1013457
16:00+10wsw101572100 0.4 1010615
19:00+9sw111682100 1.0 1009870
22:00+8wsw111480100 0.6 1009859